| time (UTC) | temp C | wind direction | speed KPH | gust KPH | rain 1hr cm | rain 24hr cm | rain mn cm | humidity % | barometer mb |
| 20260502194522 | 16 | 23 | 3.2 | 8.0 | 0.00 | 0.00 | 0.00 | 36 | 1012.7 |
| 20260502193522 | 16 | 23 | 4.8 | 12.9 | 0.00 | 0.00 | 0.00 | 36 | 1012.9 |
| 20260502192547 | 16 | 23 | 4.8 | 9.7 | 0.00 | 0.00 | 0.00 | 36 | 1012.7 |
| 20260502191522 | 16 | 23 | 4.8 | 11.3 | 0.00 | 0.00 | 0.00 | 36 | 1012.8 |
| 20260502190522 | 16 | 23 | 4.8 | 12.9 | 0.00 | 0.00 | 0.00 | 35 | 1012.9 |
| 20260502185547 | 15 | 45 | 4.8 | 11.3 | 0.00 | 0.00 | 0.00 | 37 | 1013.1 |
| 20260502184522 | 15 | 23 | 3.2 | 8.0 | 0.00 | 0.00 | 0.00 | 35 | 1013.1 |
| 20260502183522 | 15 | 23 | 6.4 | 17.7 | 0.00 | 0.00 | 0.00 | 35 | 1013.1 |
| 20260502182522 | 15 | 23 | 4.8 | 11.3 | 0.00 | 0.00 | 0.00 | 38 | 1013.1 |
| 20260502181522 | 15 | 23 | 4.8 | 11.3 | 0.00 | 0.00 | 0.00 | 36 | 1013.1 |
| 20260502180522 | 14 | 45 | 4.8 | 11.3 | 0.00 | 0.00 | 0.00 | 37 | 1013.1 |
| 20260502163521 | 15 | 23 | 3.2 | 9.7 | 0.00 | 0.00 | 0.00 | 38 | 1014.3 |
| 20260502162547 | 15 | 23 | 3.2 | 6.4 | 0.00 | 0.00 | 0.00 | 39 | 1014.5 |
| 20260502161521 | 15 | 23 | 1.6 | 8.0 | 0.00 | 0.00 | 0.00 | 42 | 1014.4 |
| 20260502160521 | 13 | 23 | 1.6 | 6.4 | 0.00 | 0.00 | 0.00 | 46 | 1014.3 |
| 20260502151522 | 11 | 0.0 | 4.8 | 0.00 | 0.00 | 0.00 | 55 | 1014.3 | |
| 20260502150521 | 11 | 0.0 | 1.6 | 0.00 | 0.00 | 0.00 | 57 | 1014.4 | |
| 20260502130521 | 10 | 0.0 | 1.6 | 0.00 | 0.00 | 0.00 | 69 | 1014.0 | |
| 20260502123521 | 10 | 0.0 | 3.2 | 0.00 | 0.00 | 0.00 | 72 | 1014.0 | |
| 20260502122521 | 10 | 0.0 | 3.2 | 0.00 | 0.00 | 0.00 | 72 | 1014.0 | |
| 20260502121521 | 10 | 0.0 | 3.2 | 0.00 | 0.00 | 0.00 | 73 | 1013.9 | |
| 20260502120521 | 10 | 0.0 | 3.2 | 0.00 | 0.00 | 0.00 | 73 | 1014.3 | |
| 20260502115612 | 10 | 0.0 | 1.6 | 0.00 | 0.00 | 0.00 | 74 | 1013.9 | |
| 20260502114546 | 10 | 0.0 | 3.2 | 0.00 | 0.00 | 0.00 | 74 | 1013.7 | |
| 20260502113521 | 10 | 0.0 | 0.0 | 0.00 | 0.00 | 0.00 | 75 | 1013.7 | |
| 20260502112521 | 10 | 0.0 | 1.6 | 0.00 | 0.00 | 0.00 | 74 | 1013.5 | |
| 20260502111521 | 10 | 0.0 | 3.2 | 0.00 | 0.00 | 0.00 | 74 | 1013.3 | |
| 20260502110521 | 10 | 23 | 1.6 | 3.2 | 0.00 | 0.00 | 0.00 | 74 | 1013.4 |
| 20260502105521 | 10 | 0.0 | 3.2 | 0.00 | 0.00 | 0.00 | 73 | 1013.6 | |
| 20260502104521 | 10 | 0.0 | 1.6 | 0.00 | 0.00 | 0.00 | 73 | 1013.4 | |
| 20260502103521 | 10 | 0.0 | 0.0 | 0.00 | 0.00 | 0.00 | 74 | 1013.2 | |
| 20260502102521 | 10 | 0.0 | 1.6 | 0.00 | 0.00 | 0.00 | 73 | 1013.2 | |
| 20260502101521 | 10 | 0 | 1.6 | 4.8 | 0.00 | 0.00 | 0.00 | 73 | 1013.2 |
| 20260502100521 | 10 | 0.0 | 1.6 | 0.00 | 0.00 | 0.00 | 73 | 1013.2 | |
| 20260502091521 | 11 | 0.0 | 3.2 | 0.00 | 0.00 | 0.00 | 73 | 1013.3 | |
| 20260502090521 | 11 | 0.0 | 1.6 | 0.00 | 0.00 | 0.00 | 73 | 1013.4 | |
| 20260502071520 | 12 | 0.0 | 3.2 | 0.00 | 0.00 | 0.00 | 70 | 1013.8 | |
| 20260502070520 | 12 | 0.0 | 1.6 | 0.00 | 0.00 | 0.00 | 72 | 1013.9 | |
| 20260502065521 | 12 | 0.0 | 1.6 | 0.00 | 0.00 | 0.00 | 70 | 1013.8 | |
| 20260502064520 | 12 | 0 | 1.6 | 4.8 | 0.00 | 0.00 | 0.00 | 70 | 1013.8 |
| 20260502063521 | 12 | 0.0 | 4.8 | 0.00 | 0.00 | 0.00 | 70 | 1013.9 | |
| 20260502062521 | 12 | 23 | 1.6 | 4.8 | 0.00 | 0.00 | 0.00 | 70 | 1013.8 |
| 20260502061520 | 12 | 0 | 1.6 | 4.8 | 0.00 | 0.00 | 0.00 | 70 | 1013.8 |
| 20260502060521 | 12 | 0 | 1.6 | 8.0 | 0.00 | 0.00 | 0.00 | 70 | 1014.2 |
| 20260502055521 | 12 | 0.0 | 1.6 | 0.00 | 0.00 | 0.00 | 70 | 1014.3 | |
| 20260502054520 | 12 | 0.0 | 4.8 | 0.00 | 0.00 | 0.00 | 69 | 1014.2 | |
| 20260502053520 | 12 | 0.0 | 3.2 | 0.00 | 0.00 | 0.00 | 70 | 1014.3 | |
| 20260502052520 | 12 | 0.0 | 1.6 | 0.00 | 0.00 | 0.00 | 70 | 1014.5 | |
| 20260502051545 | 12 | 0.0 | 0.0 | 0.00 | 0.00 | 0.00 | 69 | 1014.3 | |
| 20260502050520 | 12 | 0.0 | 1.6 | 0.00 | 0.00 | 0.00 | 68 | 1014.2 | |
| 20260502045520 | 12 | 23 | 1.6 | 4.8 | 0.00 | 0.00 | 0.00 | 68 | 1014.0 |
| 20260502044520 | 12 | 0.0 | 4.8 | 0.00 | 0.00 | 0.00 | 69 | 1014.0 | |
| 20260502043520 | 12 | 0.0 | 1.6 | 0.00 | 0.00 | 0.00 | 69 | 1014.0 | |
| 20260502042520 | 12 | 0.0 | 1.6 | 0.00 | 0.00 | 0.00 | 68 | 1013.8 | |
| 20260502041546 | 12 | 0.0 | 1.6 | 0.00 | 0.00 | 0.00 | 67 | 1014.1 | |
| 20260502040520 | 12 | 0.0 | 0.0 | 0.00 | 0.00 | 0.00 | 65 | 1013.8 | |
| 20260502035546 | 12 | 0.0 | 0.0 | 0.00 | 0.00 | 0.00 | 64 | 1013.7 | |
| 20260502034521 | 12 | 0.0 | 1.6 | 0.00 | 0.00 | 0.00 | 63 | 1013.7 | |
| 20260502033521 | 12 | 0.0 | 0.0 | 0.00 | 0.00 | 0.00 | 61 | 1013.7 | |
| 20260502032521 | 13 | 0.0 | 0.0 | 0.00 | 0.00 | 0.00 | 61 | 1013.7 | |
| 20260502031520 | 13 | 0.0 | 0.0 | 0.00 | 0.00 | 0.00 | 61 | 1014.0 | |
| 20260502030611 | 13 | 0.0 | 0.0 | 0.00 | 0.00 | 0.00 | 60 | 1014.0 | |
| 20260502025521 | 13 | 0.0 | 0.0 | 0.00 | 0.00 | 0.00 | 60 | 1014.0 | |
| 20260502024520 | 13 | 0.0 | 0.0 | 0.00 | 0.00 | 0.00 | 60 | 1014.1 | |
| 20260502023521 | 13 | 0.0 | 0.0 | 0.00 | 0.00 | 0.00 | 60 | 1013.7 | |
| 20260502022520 | 13 | 0.0 | 0.0 | 0.00 | 0.00 | 0.00 | 59 | 1013.7 | |
| 20260502021546 | 13 | 0.0 | 0.0 | 0.00 | 0.00 | 0.00 | 58 | 1013.7 | |
| 20260502020546 | 13 | 0.0 | 0.0 | 0.00 | 0.00 | 0.00 | 57 | 1013.5 | |
| 20260502015520 | 13 | 0.0 | 0.0 | 0.00 | 0.00 | 0.00 | 57 | 1013.4 | |
| 20260502014521 | 13 | 0.0 | 0.0 | 0.00 | 0.00 | 0.00 | 57 | 1013.4 | |
| 20260502013520 | 13 | 0.0 | 0.0 | 0.00 | 0.00 | 0.00 | 56 | 1013.1 | |
| 20260502012521 | 14 | 0.0 | 0.0 | 0.00 | 0.00 | 0.00 | 55 | 1013.0 | |
| 20260502011520 | 14 | 0.0 | 0.0 | 0.00 | 0.00 | 0.00 | 53 | 1012.9 | |
| 20260502010520 | 15 | 0.0 | 0.0 | 0.00 | 0.00 | 0.00 | 52 | 1012.6 | |
| 20260502005520 | 15 | 0.0 | 0.0 | 0.00 | 0.00 | 0.00 | 50 | 1012.8 | |
| 20260502004522 | 15 | 0.0 | 0.0 | 0.00 | 0.00 | 0.00 | 50 | 1012.8 | |
| 20260502003520 | 16 | 0.0 | 1.6 | 0.00 | 0.00 | 0.00 | 50 | 1012.5 | |
| 20260502002522 | 16 | 0.0 | 3.2 | 0.00 | 0.00 | 0.00 | 48 | 1012.5 | |
| 20260502001520 | 16 | 23 | 1.6 | 4.8 | 0.00 | 0.00 | 0.00 | 43 | 1012.3 |
| 20260502000613 | 16 | 23 | 1.6 | 4.8 | 0.00 | 0.00 | 0.00 | 43 | 1012.1 |
| 20260501235547 | 16 | 23 | 1.6 | 4.8 | 0.00 | 0.00 | 0.00 | 44 | 1011.9 |
| 20260501234522 | 16 | 0 | 1.6 | 3.2 | 0.00 | 0.00 | 0.00 | 45 | 1011.6 |
| 20260501233612 | 16 | 0.0 | 1.6 | 0.00 | 0.00 | 0.00 | 47 | 1011.3 | |
| 20260501232522 | 17 | 0.0 | 1.6 | 0.00 | 0.00 | 0.00 | 51 | 1011.6 | |
| 20260501231522 | 17 | 0.0 | 1.6 | 0.00 | 0.00 | 0.00 | 50 | 1011.3 | |
| 20260501230522 | 17 | 0.0 | 1.6 | 0.00 | 0.00 | 0.00 | 52 | 1011.2 | |
| 20260501225522 | 17 | 0.0 | 0.0 | 0.00 | 0.00 | 0.00 | 56 | 1011.4 | |
| 20260501224522 | 17 | 23 | 1.6 | 4.8 | 0.00 | 0.00 | 0.00 | 53 | 1011.5 |
| 20260501223522 | 18 | 0.0 | 0.0 | 0.00 | 0.00 | 0.00 | 55 | 1011.5 | |
| 20260501222547 | 18 | 0.0 | 0.0 | 0.00 | 0.00 | 0.00 | 54 | 1012.1 | |
| 20260501221522 | 18 | 0.0 | 0.0 | 0.00 | 0.00 | 0.00 | 52 | 1012.0 | |
| 20260501220547 | 18 | 0.0 | 0.0 | 0.00 | 0.00 | 0.00 | 53 | 1012.2 | |
| 20260501215522 | 18 | 0.0 | 1.6 | 0.00 | 0.00 | 0.00 | 52 | 1012.2 | |
| 20260501214522 | 18 | 0.0 | 1.6 | 0.00 | 0.00 | 0.00 | 52 | 1012.2 | |
| 20260501213522 | 18 | 0.0 | 1.6 | 0.00 | 0.00 | 0.00 | 52 | 1012.1 | |
| 20260501212522 | 18 | 0.0 | 0.0 | 0.00 | 0.00 | 0.00 | 50 | 1012.2 | |
| 20260501211522 | 18 | 0.0 | 1.6 | 0.00 | 0.00 | 0.00 | 51 | 1012.2 | |
| 20260501210522 | 18 | 0.0 | 1.6 | 0.00 | 0.00 | 0.00 | 50 | 1012.3 | |
| 20260501205522 | 18 | 0.0 | 3.2 | 0.00 | 0.00 | 0.00 | 51 | 1012.3 | |
| 20260501204522 | 19 | 0.0 | 1.6 | 0.00 | 0.00 | 0.00 | 50 | 1012.4 | |
| 20260501203547 | 19 | 0.0 | 1.6 | 0.00 | 0.00 | 0.00 | 49 | 1012.5 | |
| 20260501202522 | 19 | 135 | 1.6 | 3.2 | 0.00 | 0.00 | 0.00 | 50 | 1012.4 |
| 20260501201522 | 20 | 68 | 1.6 | 4.8 | 0.00 | 0.00 | 0.00 | 49 | 1012.7 |
| 20260501200522 | 20 | 158 | 1.6 | 3.2 | 0.00 | 0.00 | 0.00 | 50 | 1012.9 |
| 20260501195522 | 19 | 135 | 1.6 | 3.2 | 0.00 | 0.00 | 0.00 | 49 | 1012.8 |